[[{"header":{"parameterUnit":"m.s-1","parameterCategory":1,"la1":30.2991,"la2":30.254,"lo1":-89.0895,"lo2":-89.0444,"dy":0.0017,"dx":0.0017,"nx":28,"ny":28,"refTime":"2024-05-11T21:00:00:Z","depth":0,"parameterNumber":2,"parameterNumberName":"U-component_of_WINDS"},"data":[0,0,0,0,0,0,0,0,0,0,0,0,0,0,0,0,0,0,0,0,0,0,0,0,0,0,0,0,0,0,0,0,0,0,0,0,0,0,0,0,0,0,0,0,0,0,0,0,0,0,0,0,0,0,0,0,0,0,-0.2225,-0.2224,0,-0.2127,-0.2126,-0.2125,-0.2107,-0.2108,-0.2108,-0.2109,-0.2007,-0.2003,-0.2,0,0,0,0,0,0,0,0,0,0,0,0,0,-0.2396,-0.2393,-0.2225,-0.2224,-0.2223,-0.2127,-0.2126,-0.2124,-0.2107,-0.2108,-0.2109,-0.211,-0.2008,-0.2004,-0.1999,0,0,0,0,0,0,0,0,0,0,0,0,0,-0.2312,-0.2392,-0.2226,-0.2203,-0.22,-0.2127,-0.2126,-0.2124,-0.2106,-0.2108,-0.2109,-0.211,-0.2009,-0.2004,-0.1999,-0.1942,0,0,-0.1983,-0.1981,0,0,0,0,0,0,0,0,-0.2317,-0.2306,-0.2207,-0.2204,-0.22,-0.213,-0.2148,-0.2063,-0.2106,-0.2142,-0.2109,-0.2111,-0.2047,-0.2038,-0.2017,-0.1938,-0.1933,-0.1982,-0.1979,-0.1977,-0.1976,0,0,0,0,0,0,0,-0.2323,-0.231,-0.2186,-0.2206,-0.2202,-0.2197,-0.2186,-0.2132,-0.2089,-0.2139,-0.2137,-0.2126,-0.2045,-0.2022,-0.2015,-0.1932,-0.1983,-0.1978,-0.1975,-0.1973,-0.18,-0.1799,0,0,0,0,0,0,-0.2333,-0.2315,-0.219,-0.2183,-0.2263,-0.2193,-0.2181,-0.2152,-0.2089,-0.2081,-0.2125,-0.2125,-0.2031,-0.2021,-0.2011,-0.1941,-0.1977,-0.1972,-0.1969,-0.1802,-0.18,-0.1798,0,0,0,0,0,0,-0.2337,-0.2322,-0.2193,-0.2249,-0.2232,-0.2188,-0.2156,-0.2149,-0.2126,-0.2079,-0.2071,-0.211,-0.2031,-0.2018,-0.196,-0.1937,-0.197,-0.1965,-0.1803,-0.1801,-0.1799,-0.1799,0,0,0,0,0,0,-0.2342,-0.2323,-0.2302,-0.2248,-0.2229,-0.2144,-0.2154,-0.2146,-0.2118,-0.2117,-0.2062,-0.2054,-0.2031,-0.1968,-0.1954,-0.193,-0.1961,-0.1805,-0.1802,-0.18,-0.1801,-0.1797,-0.1794,0,0,0,0,0,-0.2348,-0.2306,-0.2301,-0.2286,-0.2201,-0.2143,-0.2132,-0.2107,-0.2116,-0.2094,-0.2063,-0.2056,-0.1942,-0.1962,-0.1947,-0.1921,-0.1806,-0.1803,-0.18,-0.1803,-0.1798,-0.1794,0,0,0,0,0,0,-0.2357,-0.2298,-0.2292,-0.2232,-0.2193,-0.214,-0.2111,-0.2103,-0.2059,-0.2061,-0.2031,-0.2018,-0.1961,-0.1935,-0.1959,-0.1862,-0.1875,-0.1868,-0.1882,-0.1877,-0.1874,-0.1881,-0.1957,0,0,0,0,0,-0.2352,-0.231,-0.2261,-0.2212,-0.2192,-0.2155,-0.2129,-0.2113,-0.2071,-0.2054,-0.2019,-0.1978,-0.1933,-0.1903,-0.1859,-0.1797,-0.1785,-0.1772,-0.1769,-0.1766,-0.1761,-0.1726,-0.172,-0.1788,-0.1788,-0.1788,0,0,-0.2341,-0.2304,-0.2279,-0.2213,-0.218,-0.2137,-0.2141,-0.2095,-0.2063,-0.2047,-0.1989,-0.1962,-0.1914,-0.1854,-0.1825,-0.183,-0.1739,-0.1762,-0.176,-0.1756,-0.1722,-0.1716,-0.171,-0.1785,-0.1786,-0.1786,0,0,-0.2299,-0.2267,-0.2222,-0.219,-0.2142,-0.2117,-0.2106,-0.2055,-0.2037,-0.1979,-0.1966,-0.1926,-0.1849,-0.1815,-0.1788,-0.1733,-0.1726,-0.172,-0.1702,-0.1668,-0.1663,-0.1658,-0.1638,-0.1632,-0.1715,-0.1715,-0.1715,0,-0.2291,-0.2226,-0.2201,-0.2155,-0.2126,-0.211,-0.2065,-0.2034,-0.1974,-0.1954,-0.196,-0.1863,-0.1829,-0.1761,-0.1748,-0.1726,-0.1713,-0.1726,-0.1666,-0.1661,-0.1656,-0.1636,-0.1629,-0.1714,-0.1714,-0.1714,-0.1714,0,-0.2219,-0.2174,-0.2144,-0.2086,-0.2054,-0.2008,-0.1976,-0.1946,-0.1932,-0.1907,-0.1848,-0.1808,-0.1755,-0.1737,-0.1724,-0.1667,-0.1671,-0.1672,-0.1683,-0.1649,-0.1631,-0.1623,-0.1714,-0.1714,-0.1714,-0.1714,0,0,-0.218,-0.2109,-0.2098,-0.2072,-0.2017,-0.1981,-0.1935,-0.1884,-0.1859,-0.1817,-0.1778,-0.1713,-0.1713,-0.1682,-0.1665,-0.1635,-0.1594,-0.1639,-0.1638,-0.1632,-0.1529,-0.1529,-0.152,-0.1589,-0.1587,-0.1586,-0.1533,0,-0.2131,-0.2049,-0.2025,-0.1955,-0.1913,-0.1897,-0.1857,-0.1819,-0.1794,-0.1754,-0.1726,-0.1681,-0.1685,-0.1666,-0.1636,-0.1606,-0.1573,-0.1609,-0.1551,-0.1549,-0.1564,-0.1511,-0.151,-0.1462,-0.1525,-0.1524,-0.1523,0,-0.2063,-0.2021,-0.1948,-0.1898,-0.188,-0.1844,-0.1795,-0.1757,-0.1714,-0.1697,-0.1663,-0.1648,-0.1599,-0.1613,-0.1545,-0.157,-0.1545,-0.1526,-0.1524,-0.1517,-0.1534,-0.1503,-0.1446,-0.1439,-0.1512,-0.1513,-0.1513,0,-0.2042,-0.1967,-0.1913,-0.1891,-0.1832,-0.1807,-0.1781,-0.1739,-0.171,-0.1667,-0.1647,-0.1599,-0.1573,-0.1536,-0.1508,-0.1521,-0.1442,-0.1454,-0.1427,-0.1427,-0.141,-0.1412,-0.1349,-0.1394,-0.1394,-0.1395,-0.1395,0,-0.199,-0.1946,-0.1903,-0.187,-0.182,-0.1792,-0.1743,-0.1716,-0.1678,-0.1639,-0.1623,-0.1587,-0.1552,-0.1511,-0.1489,-0.1436,-0.1424,-0.1409,-0.1404,-0.141,-0.1412,-0.1394,-0.1396,-0.1393,-0.1393,-0.1393,-0.1394,0,-0.1958,-0.1928,-0.1868,-0.1817,-0.1803,-0.1768,-0.1725,-0.1692,-0.1666,-0.1617,-0.1604,-0.1564,-0.1515,-0.1484,-0.1421,-0.1406,-0.1348,-0.1343,-0.1363,-0.136,-0.1335,-0.1338,-0.1257,-0.1245,-0.1299,-0.1299,-0.1298,0,-0.1927,-0.1893,-0.1838,-0.1811,-0.1785,-0.1742,-0.1712,-0.1683,-0.1653,-0.16,-0.1574,-0.1524,-0.1482,-0.1405,-0.137,-0.1322,-0.1316,-0.1291,-0.1309,-0.1317,-0.1316,-0.1318,-0.1315,-0.1288,-0.1288,-0.1288,-0.1287,0,-0.1875,-0.1862,-0.182,-0.1773,-0.1738,-0.1699,-0.166,-0.1639,-0.1603,-0.157,-0.152,-0.1488,-0.1424,-0.1374,-0.1323,-0.1296,-0.1285,-0.1282,-0.1273,-0.128,-0.1293,-0.1285,-0.1355,-0.1284,-0.1284,-0.1285,-0.1285,-0.1285,-0.1843,-0.1812,-0.1768,-0.1722,-0.169,-0.1654,-0.162,-0.1591,-0.1549,-0.1495,-0.1481,-0.1428,-0.1385,-0.1315,-0.1287,-0.1245,-0.1249,-0.1236,-0.1232,-0.123,-0.123,-0.1299,-0.1236,-0.1236,-0.1236,-0.1236,-0.1236,0,-0.179,-0.1762,-0.1719,-0.1666,-0.1629,-0.1623,-0.158,-0.1549,-0.1504,-0.1464,-0.1424,-0.1366,-0.1318,-0.128,-0.123,-0.1204,-0.1198,-0.1192,-0.1194,-0.1188,-0.123,-0.1242,-0.1198,-0.1198,-0.1198,-0.1198,-0.1198,-0.1198,-0.1759,-0.1705,-0.1687,-0.1617,-0.1589,-0.1538,-0.1514,-0.148,-0.1449,-0.1385,-0.1345,-0.1321,-0.1281,-0.1229,-0.1184,-0.1174,-0.1157,-0.1152,-0.1141,-0.118,-0.1185,-0.1189,-0.1201,-0.1148,-0.1148,-0.1102,-0.1102,-0.1101]},{"header":{"parameterUnit":"m.s-1","parameterCategory":1,"la1":30.2991,"la2":30.254,"lo1":-89.0895,"lo2":-89.0444,"dy":0.0017,"dx":0.0017,"nx":28,"ny":28,"refTime":"2024-05-11T21:00:00:Z","depth":0,"parameterNumber":3,"parameterNumberName":"V-component_of_WINDS"},"data":[0,0,0,0,0,0,0,0,0,0,0,0,0,0,0,0,0,0,0,0,0,0,0,0,0,0,0,0,0,0,0,0,0,0,0,0,0,0,0,0,0,0,0,0,0,0,0,0,0,0,0,0,0,0,0,0,0,0,-0.2897,-0.2898,0,-0.3021,-0.3022,-0.3024,-0.3154,-0.3155,-0.3157,-0.3159,-0.3284,-0.3286,-0.3287,0,0,0,0,0,0,0,0,0,0,0,0,0,-0.2772,-0.2774,-0.2897,-0.2898,-0.29,-0.3021,-0.3022,-0.3024,-0.3153,-0.3155,-0.3158,-0.316,-0.3284,-0.3286,-0.3288,0,0,0,0,0,0,0,0,0,0,0,0,0,-0.2854,-0.2774,-0.2897,-0.2979,-0.2988,-0.302,-0.3022,-0.3025,-0.3153,-0.3156,-0.3158,-0.3161,-0.3283,-0.3285,-0.3288,-0.3249,0,0,-0.3295,-0.3297,0,0,0,0,0,0,0,0,-0.2849,-0.2858,-0.2965,-0.2973,-0.2983,-0.3075,-0.3025,-0.31,-0.3152,-0.309,-0.3159,-0.3162,-0.3212,-0.3221,-0.3238,-0.3255,-0.326,-0.3296,-0.3297,-0.3298,-0.3299,0,0,0,0,0,0,0,-0.2843,-0.2854,-0.2946,-0.2967,-0.2978,-0.301,-0.3024,-0.3039,-0.3134,-0.3096,-0.3105,-0.3118,-0.3218,-0.3235,-0.3242,-0.3262,-0.3296,-0.3298,-0.3299,-0.33,-0.3256,-0.3253,0,0,0,0,0,0,-0.2825,-0.2848,-0.2942,-0.295,-0.2922,-0.301,-0.3026,-0.3042,-0.3135,-0.3151,-0.3116,-0.3124,-0.323,-0.3239,-0.3247,-0.3209,-0.3298,-0.3301,-0.3302,-0.3258,-0.3255,-0.3252,0,0,0,0,0,0,-0.2822,-0.2832,-0.2937,-0.2902,-0.2918,-0.3009,-0.3026,-0.3043,-0.3061,-0.315,-0.3167,-0.3116,-0.3232,-0.3243,-0.3248,-0.3215,-0.3302,-0.3304,-0.3262,-0.3257,-0.3254,-0.3131,0,0,0,0,0,0,-0.2818,-0.283,-0.2816,-0.29,-0.2919,-0.2936,-0.3024,-0.3044,-0.3065,-0.3077,-0.3155,-0.3171,-0.3235,-0.3244,-0.325,-0.322,-0.3306,-0.3265,-0.326,-0.3255,-0.3139,-0.3124,-0.3111,0,0,0,0,0,-0.2813,-0.2776,-0.2815,-0.2825,-0.2903,-0.2933,-0.2944,-0.302,-0.3062,-0.3049,-0.3106,-0.3168,-0.3217,-0.3243,-0.3252,-0.3221,-0.3267,-0.3261,-0.3255,-0.3145,-0.3127,-0.3111,0,0,0,0,0,0,-0.2684,-0.2788,-0.2833,-0.2822,-0.2868,-0.2955,-0.2941,-0.2997,-0.3032,-0.3041,-0.3133,-0.315,-0.3144,-0.3184,-0.321,-0.319,-0.3251,-0.3247,-0.3164,-0.3148,-0.3134,-0.3125,-0.3308,0,0,0,0,0,-0.2655,-0.2671,-0.2761,-0.2743,-0.2764,-0.2848,-0.2864,-0.2918,-0.297,-0.299,-0.3047,-0.3094,-0.3121,-0.3137,-0.3166,-0.3145,-0.3165,-0.3129,-0.3115,-0.3103,-0.3098,-0.3092,-0.3078,-0.3233,-0.3233,-0.3233,0,0,-0.2593,-0.2652,-0.2657,-0.2718,-0.2761,-0.2776,-0.2863,-0.2875,-0.2887,-0.2991,-0.3,-0.3044,-0.3103,-0.3095,-0.3095,-0.3128,-0.306,-0.3095,-0.3085,-0.3087,-0.3085,-0.307,-0.3057,-0.3229,-0.3229,-0.323,0,0,-0.249,-0.2535,-0.2527,-0.2568,-0.2631,-0.2688,-0.2685,-0.2765,-0.2798,-0.2809,-0.2888,-0.2904,-0.2947,-0.2987,-0.3012,-0.2926,-0.2985,-0.2933,-0.286,-0.2853,-0.2841,-0.2831,-0.2801,-0.279,-0.2928,-0.2927,-0.2927,0,-0.2406,-0.2432,-0.2514,-0.2522,-0.2547,-0.2644,-0.2636,-0.2671,-0.274,-0.2755,-0.2792,-0.285,-0.2896,-0.29,-0.288,-0.2897,-0.2898,-0.2924,-0.2836,-0.2827,-0.2818,-0.2791,-0.278,-0.2921,-0.2922,-0.2922,-0.2923,0,-0.2326,-0.2343,-0.2328,-0.2394,-0.2418,-0.2417,-0.25,-0.2514,-0.2567,-0.262,-0.263,-0.2689,-0.2733,-0.2738,-0.2789,-0.275,-0.2769,-0.2819,-0.2883,-0.2795,-0.2772,-0.2762,-0.2911,-0.2914,-0.2916,-0.2917,0,0,-0.2143,-0.2257,-0.225,-0.2282,-0.236,-0.2375,-0.2379,-0.2423,-0.2434,-0.2479,-0.2486,-0.2522,-0.2569,-0.2598,-0.2655,-0.2649,-0.2579,-0.2701,-0.2704,-0.2677,-0.2542,-0.2504,-0.2491,-0.2619,-0.2617,-0.2616,-0.2538,0,-0.2054,-0.2069,-0.2144,-0.2137,-0.2155,-0.2247,-0.2252,-0.23,-0.235,-0.2373,-0.2428,-0.2452,-0.2513,-0.2531,-0.253,-0.2588,-0.2553,-0.2594,-0.2627,-0.2627,-0.261,-0.2478,-0.2438,-0.2361,-0.2529,-0.2527,-0.2526,0,-0.1952,-0.1992,-0.1987,-0.2067,-0.2077,-0.2079,-0.2127,-0.2147,-0.2205,-0.2242,-0.2275,-0.2339,-0.235,-0.241,-0.2427,-0.2453,-0.2471,-0.2502,-0.2501,-0.2507,-0.2571,-0.2482,-0.2338,-0.2327,-0.2512,-0.2513,-0.2514,0,-0.1821,-0.1874,-0.1878,-0.1903,-0.1996,-0.1996,-0.2034,-0.2095,-0.2117,-0.2158,-0.2174,-0.2215,-0.2238,-0.227,-0.2344,-0.238,-0.2353,-0.2418,-0.2385,-0.2383,-0.2375,-0.2375,-0.2233,-0.2385,-0.2385,-0.2385,-0.2385,0,-0.1714,-0.1708,-0.1821,-0.1823,-0.1819,-0.1907,-0.19,-0.1948,-0.2001,-0.2015,-0.2097,-0.2108,-0.2205,-0.2228,-0.2286,-0.2292,-0.2301,-0.2332,-0.2348,-0.2325,-0.2322,-0.2339,-0.2346,-0.2382,-0.2383,-0.2383,-0.2384,0,-0.1567,-0.1643,-0.1654,-0.1742,-0.1764,-0.1757,-0.1833,-0.1839,-0.1895,-0.1912,-0.1921,-0.2008,-0.2039,-0.2116,-0.2167,-0.2206,-0.2198,-0.2226,-0.2178,-0.2188,-0.2151,-0.2154,-0.2016,-0.2003,-0.2161,-0.216,-0.2158,0,-0.1494,-0.1492,-0.158,-0.1596,-0.1632,-0.1655,-0.1679,-0.1765,-0.1787,-0.1853,-0.1852,-0.189,-0.1925,-0.197,-0.2038,-0.2078,-0.2109,-0.2058,-0.2115,-0.2094,-0.211,-0.2109,-0.211,-0.2045,-0.2043,-0.2041,-0.204,0,-0.1358,-0.1396,-0.1427,-0.1472,-0.1499,-0.1538,-0.1582,-0.159,-0.1687,-0.1707,-0.174,-0.1767,-0.182,-0.1857,-0.1908,-0.1949,-0.2011,-0.2021,-0.2016,-0.1993,-0.1967,-0.1982,-0.2145,-0.2024,-0.2026,-0.2027,-0.2028,-0.2028,-0.1247,-0.125,-0.1313,-0.1346,-0.1388,-0.1428,-0.1439,-0.1497,-0.1526,-0.1577,-0.1626,-0.1654,-0.1714,-0.1789,-0.1826,-0.185,-0.1882,-0.1873,-0.1872,-0.1868,-0.1859,-0.1962,-0.1859,-0.186,-0.186,-0.1861,-0.1861,0,-0.1116,-0.1161,-0.1191,-0.125,-0.1276,-0.1333,-0.1385,-0.1403,-0.1428,-0.1478,-0.1512,-0.1551,-0.1588,-0.1659,-0.1703,-0.1709,-0.1738,-0.1717,-0.1718,-0.1727,-0.1827,-0.1828,-0.1693,-0.1693,-0.1693,-0.1693,-0.1693,-0.1693,-0.105,-0.1059,-0.1105,-0.1135,-0.1182,-0.1211,-0.1236,-0.1273,-0.1315,-0.1355,-0.1387,-0.1433,-0.1493,-0.1542,-0.1579,-0.1599,-0.1612,-0.1582,-0.1611,-0.1704,-0.172,-0.1735,-0.1736,-0.1584,-0.1583,-0.1509,-0.1508,-0.1508]}]]